STARLINK-1265 (45406 NORAD) Tracking and Keplerian Element Data

This shows tracking and keplerian element data for the satellite.

Feedback or suggestion? Click here.




ElementValue
Catalog45406
NameSTARLINK-1265
Epoch Orbit1131
Epoch Day148.33335648
Epoch Year2020
RAAN272.4337
Inclination52.9967
Eccentricity0.0001344
Argument of Perigee58.7253
Mean Anonmoly26.6637
Mean Motion15.62996933
Decay Rate0.00031866
L11 45406U 20019AY 20148.33335648 .00031866 00000-0 34914-3 0 9999
L22 45406 52.9967 272.4337 0001344 58.7253 26.6637 15.62996933 11318

Live tracking and technical data element details for STARLINK-1265 (NORAD 45406). STARLINK-1265 can be tracked NOW for your location showing map with azimuth and elevation plus other details from your city location.

Track the satellite on the map from your city or location and see movement details for azimuth, elevation, latitude, longitude, range, height, and movement on the map or in text.







IsCatalogInMostPopularTable: catalog: 45406, numindb: 24
Update: records affected: 1



GetName: 45406 STARLINK-1265

Hit Count: updated at: Sat, 30 May 2020 15:20:33 GMT